Weather History for KBDH - April, 2013

Change the Weather History Date:

Saturday, April 20, 2013

  Actual Average (KLJF) Record (KLJF)
Temperature  
Mean Temperature 32 °F -  
Max Temperature 42 °F 60 °F 84 °F (1985)
Min Temperature 21 °F 38 °F 19 °F (2013)
Degree Days  
Heating Degree Days 34    
Moisture  
Dew Point 17 °F    
Average Humidity 53    
Maximum Humidity 80    
Minimum Humidity 33    
Precipitation  
Precipitation 0.00 in - - ()
Sea Level Pressure  
Sea Level Pressure 30.22 in    
Wind  
Wind Speed 6 mph (South)    
Max Wind Speed 13 mph    
Max Gust Speed 16 mph    
Visibility 9 miles    
Events Snow    
Averages and records for this station are not official NWS values.
T = Trace of Precipitation, MM = Missing Value Source: NWS Daily Summary

Daily Weather History Graph

Daily Weather History Graph

Search for Another Location

Airport or City:

Trip Planner

Search our weather history database for the weather conditions in past years. The results will help you decide how hot, cold, wet, or windy it might be!

Date:

Astronomy

Apr. 20, 2013 Rise Set
Actual Time 6:26 AM CDT 8:12 PM CDT
Civil Twilight 5:55 AM CDT 8:44 PM CDT
Nautical Twilight 5:17 AM CDT 9:22 PM CDT
Astronomical Twilight 4:36 AM CDT 10:04 PM CDT
Moon 2:44 PM CDT (4/20) 3:31 AM CDT (4/20)
Length of Visible Light 14h 48m
Length of Day
13h 46m
Waxing Gibbous, 71% of the Moon is Illuminated
Apr 20
Waxing Gibbous
Apr 25
Full
May 2
Last Quarter
May 9
New
May 17
First Quarter

Hourly Weather History & Observations

Time (CDT) Temp. Windchill Dew Point Humidity Pressure Visibility Wind Dir Wind Speed Gust Speed Precip Events Conditions
3:01 AM 26.6 °F 18.2 °F 17.6 °F 69% 30.10 in 10.0 mi WNW 8.1 mph - N/A   Clear
3:15 AM 26.6 °F 18.2 °F 15.8 °F 64% 30.10 in 10.0 mi NW 8.1 mph - N/A   Clear
3:35 AM 24.8 °F 15.3 °F 15.8 °F 69% 30.10 in 10.0 mi NW 9.2 mph - N/A   Clear
4:15 AM 24.8 °F 20.5 °F 15.8 °F 69% 30.12 in 10.0 mi WNW 3.5 mph - N/A   Clear
4:35 AM 24.8 °F 19.1 °F 15.8 °F 69% 30.13 in 10.0 mi WNW 4.6 mph - N/A   Clear
4:55 AM 24.8 °F 17.9 °F 15.8 °F 69% 30.13 in 10.0 mi WNW 5.8 mph - N/A   Clear
5:15 AM 24.8 °F 17.9 °F 15.8 °F 69% 30.13 in 10.0 mi WNW 5.8 mph - N/A   Clear
5:35 AM 24.8 °F 17.9 °F 15.8 °F 69% 30.14 in 10.0 mi WNW 5.8 mph - N/A   Clear
5:55 AM 24.8 °F 19.1 °F 15.8 °F 69% 30.15 in 10.0 mi WNW 4.6 mph - N/A   Clear
6:15 AM 23.0 °F 17.0 °F 15.8 °F 74% 30.16 in 10.0 mi WNW 4.6 mph - N/A   Clear
6:35 AM 23.0 °F 17.0 °F 15.8 °F 74% 30.17 in 10.0 mi WNW 4.6 mph - N/A   Clear
6:55 AM 23.0 °F 15.8 °F 15.8 °F 74% 30.17 in 10.0 mi NW 5.8 mph - N/A   Clear
7:15 AM 21.2 °F 14.9 °F 15.8 °F 80% 30.18 in 10.0 mi NW 4.6 mph - N/A   Clear
7:35 AM 23.0 °F 18.4 °F 15.8 °F 74% 30.19 in 10.0 mi WNW 3.5 mph - N/A   Clear
7:55 AM 24.8 °F 20.5 °F 17.6 °F 74% 30.20 in 10.0 mi NW 3.5 mph - N/A   Clear
8:15 AM 24.8 °F 19.1 °F 17.6 °F 74% 30.21 in 10.0 mi NW 4.6 mph - N/A   Clear
8:35 AM 26.6 °F 22.6 °F 17.6 °F 69% 30.21 in 10.0 mi NNW 3.5 mph - N/A   Clear
8:55 AM 26.6 °F - 17.6 °F 69% 30.22 in 10.0 mi Calm Calm - N/A   Clear
9:15 AM 28.4 °F - 17.6 °F 64% 30.22 in 10.0 mi Calm Calm - N/A   Clear
9:35 AM 28.4 °F - 17.6 °F 64% 30.23 in 10.0 mi Calm Calm - N/A   Clear
10:15 AM 30.2 °F - 17.6 °F 60% 30.24 in 10.0 mi Calm Calm - N/A   Clear
10:35 AM 32.0 °F - 17.6 °F 55% 30.24 in 10.0 mi Calm Calm - N/A   Clear
10:55 AM 33.8 °F - 17.6 °F 52% 30.25 in 10.0 mi Calm Calm - N/A   Clear
11:15 AM 33.8 °F - 17.6 °F 52% 30.25 in 10.0 mi Calm Calm - N/A   Clear
11:35 AM 35.6 °F - 17.6 °F 48% 30.25 in 10.0 mi Calm Calm - N/A   Clear
11:55 AM 35.6 °F 32.8 °F 15.8 °F 44% 30.26 in 10.0 mi SSE 3.5 mph - N/A   Clear
12:15 PM 37.4 °F 34.9 °F 15.8 °F 41% 30.26 in 10.0 mi SSE 3.5 mph - N/A   Clear
12:35 PM 37.4 °F 32.8 °F 15.8 °F 41% 30.26 in 10.0 mi South 5.8 mph - N/A   Clear
12:55 PM 37.4 °F 32.8 °F 15.8 °F 41% 30.26 in 10.0 mi SSE 5.8 mph - N/A   Clear
1:15 PM 37.4 °F 33.8 °F 15.8 °F 41% 30.26 in 10.0 mi South 4.6 mph - N/A   Clear
1:35 PM 39.2 °F 35.9 °F 17.6 °F 42% 30.27 in 10.0 mi South 4.6 mph - N/A   Clear
1:55 PM 39.2 °F 35.0 °F 17.6 °F 42% 30.27 in 10.0 mi South 5.8 mph - N/A   Clear
2:15 PM 39.2 °F 34.2 °F 15.8 °F 39% 30.26 in 10.0 mi SSE 6.9 mph - N/A   Clear
2:35 PM 41.0 °F 36.4 °F 17.6 °F 39% 30.26 in 10.0 mi South 6.9 mph - N/A   Scattered Clouds
2:55 PM 39.2 °F 32.5 °F 14.0 °F 36% 30.26 in 10.0 mi SSE 10.4 mph - N/A   Scattered Clouds
3:15 PM 39.2 °F 33.6 °F 17.6 °F 42% 30.26 in 10.0 mi SSE 8.1 mph - N/A   Clear
3:35 PM 41.0 °F 36.4 °F 15.8 °F 36% 30.26 in 10.0 mi South 6.9 mph - N/A   Scattered Clouds
3:55 PM 41.0 °F 37.1 °F 15.8 °F 36% 30.25 in 10.0 mi South 5.8 mph - N/A   Scattered Clouds
4:15 PM 41.0 °F 37.1 °F 14.0 °F 33% 30.25 in 10.0 mi SSE 5.8 mph - N/A   Clear
4:35 PM 42.8 °F 38.0 °F 17.6 °F 36% 30.25 in 10.0 mi SSE 8.1 mph - N/A   Scattered Clouds
4:55 PM 41.0 °F 35.8 °F 15.8 °F 36% 30.25 in 10.0 mi SSE 8.1 mph - N/A   Clear
5:15 PM 41.0 °F 35.8 °F 14.0 °F 33% 30.24 in 10.0 mi SSE 8.1 mph - N/A   Clear
5:35 PM 41.0 °F 35.8 °F 15.8 °F 36% 30.24 in 10.0 mi SSE 8.1 mph - N/A   Clear
5:55 PM 41.0 °F 36.4 °F 15.8 °F 36% 30.23 in 10.0 mi SSE 6.9 mph - N/A   Clear
6:15 PM 41.0 °F 35.2 °F 15.8 °F 36% 30.23 in 10.0 mi SSE 9.2 mph - N/A   Clear
6:35 PM 39.2 °F 32.0 °F 15.8 °F 39% 30.23 in 10.0 mi SE 11.5 mph - N/A   Clear
6:55 PM 39.2 °F 32.0 °F 15.8 °F 39% 30.23 in 10.0 mi SE 11.5 mph - N/A   Clear
7:15 PM 39.2 °F 32.0 °F 15.8 °F 39% 30.23 in 10.0 mi SE 11.5 mph - N/A   Clear
7:35 PM 39.2 °F 32.5 °F 15.8 °F 39% 30.23 in 10.0 mi SE 10.4 mph - N/A   Clear
7:56 PM 37.4 °F 30.3 °F 15.8 °F 41% 30.24 in 10.0 mi SE 10.4 mph - N/A   Clear
8:15 PM 37.4 °F 30.8 °F 15.8 °F 41% 30.24 in 10.0 mi ESE 9.2 mph - N/A   Clear
8:55 PM 37.4 °F 30.8 °F 19.4 °F 48% 30.24 in 10.0 mi ESE 9.2 mph - N/A   Clear
9:15 PM 37.4 °F 31.4 °F 19.4 °F 48% 30.25 in 10.0 mi ESE 8.1 mph - N/A   Scattered Clouds
9:35 PM 37.4 °F 31.4 °F 19.4 °F 48% 30.26 in 10.0 mi SE 8.1 mph - N/A   Overcast
9:55 PM 37.4 °F 32.8 °F 21.2 °F 52% 30.27 in 10.0 mi SSE 5.8 mph - N/A   Mostly Cloudy
10:15 PM 37.4 °F 29.3 °F 17.6 °F 45% 30.27 in 10.0 mi SSE 12.7 mph 16.1 mph N/A   Mostly Cloudy
10:35 PM 37.4 °F 29.8 °F 19.4 °F 48% 30.27 in 7.0 mi SSE 11.5 mph - N/A Snow Light Snow
10:55 PM 35.6 °F 27.5 °F 24.8 °F 65% 30.27 in 3.0 mi SSE 11.5 mph - N/A Snow Light Snow
11:15 PM 35.6 °F 27.5 °F 26.6 °F 70% 30.27 in 2.0 mi SE 11.5 mph - N/A Snow Light Snow
11:35 PM 35.6 °F 27.5 °F 26.6 °F 70% 30.27 in 2.0 mi SE 11.5 mph - N/A Snow Light Snow
11:55 PM 35.6 °F 27.5 °F 26.6 °F 70% 30.26 in 1.5 mi SE 11.5 mph - N/A Snow Light Snow